Wetbulb
58.07 57.73 57.06 56.32 56.24 55.99 56.68 55.78 55.86 56.00 56.12 56.70 56.64 56.42 56.43 56.81 57.10 57.45 57.92 57.93 57.76 57.89 58.30 59.05 59.70 60.84 58.40 55.37 56.06 66.59 73.65 72.41 66.85 59.78 57.41 57.38 57.13 57.97 56.25 59.14 63.70 62.63 65.20 65.72 67.41 66.17 65.15
57.80 57.84 56.70 56.51 56.97 57.12 57.06 56.25 56.14 56.28 56.18 56.26 56.52 56.35 56.57 57.21 57.20 57.53 57.69 57.73 57.34 57.37 58.10 59.21 60.09 61.32 57.24 50.31 59.96 62.50 65.53 65.21 61.19 59.90 56.72 57.21 57.81 60.03 57.81 58.44 59.96 63.88 65.56 64.68 65.27 65.15 64.37
57.65 57.18 57.12 56.95 56.99 56.90 56.46 56.15 55.80 56.12 55.93 55.84 56.12 56.51 56.95 57.04 56.96 57.09 57.00 56.99 56.76 57.15 58.27 59.67 60.70 61.33 55.32 54.37 61.16 59.12 61.42 58.35 60.79 60.20 57.93 59.68 60.12 58.50 58.46 57.11 62.02 62.39 59.22 62.10 62.85 64.86 64.15
56.25 57.07 56.78 57.00 57.05 56.43 56.38 56.29 56.10 56.38 56.20 56.27 56.23 56.23 56.36 56.36 56.38 56.47 56.44 56.05 56.01 57.47 58.94 60.83 61.88 59.24 52.47 60.16 60.11 59.74 59.03 56.94 58.33 59.65 60.47 61.61 61.78 57.46 56.60 58.69 59.18 57.81 57.01 52.69 60.46 63.00 63.99
55.67 56.61 56.96 56.85 56.57 56.59 56.57 56.40 56.18 56.30 56.27 56.34 56.65 56.53 56.55 56.37 56.47 56.05 55.33 55.25 56.52 58.93 60.88 61.52 56.64 54.71 52.72 63.64 56.11 57.45 56.48 55.62 56.45 59.07 59.81 62.87 58.58 54.12 56.09 54.49 52.70 54.03 49.39 54.26 60.33 63.58 62.57
55.53 55.44 55.36 56.33 56.29 56.12 56.04 56.33 56.20 56.10 56.02 56.05 56.20 56.07 56.04 56.06 55.66 55.03 54.47 55.17 57.77 58.58 60.57 61.99 60.74 52.50 57.15 57.01 56.42 57.14 56.79 56.66 55.11 54.82 58.26 58.19 55.03 51.58 52.59 51.42 46.14 49.92 53.18 56.58 55.90 60.50 61.33
55.76 55.13 55.01 55.63 55.63 56.31 56.28 56.05 55.90 56.01 55.92 55.89 55.83 55.61 55.46 55.54 54.86 54.03 52.40 54.71 54.82 52.62 54.87 53.41 53.05 54.49 55.33 59.13 59.10 53.11 55.17 54.21 54.14 52.04 48.20 53.68 50.34 48.27 52.67 54.31 55.54 55.35 54.89 55.88 58.88 60.72 59.81
55.13 54.90 54.92 55.80 56.27 56.06 55.90 55.85 55.52 55.69 55.73 55.85 55.68 55.28 54.95 54.68 54.11 53.56 51.51 53.25 57.19 56.43 51.86 58.84 58.98 58.82 58.43 57.30 52.67 54.51 54.87 50.33 50.60 47.37 49.84 47.78 46.18 52.58 55.47 55.97 55.17 54.72 53.55 53.75 58.76 60.40 57.95
54.88 54.82 54.78 56.07 55.73 55.86 55.81 55.63 55.53 55.32 55.64 55.51 55.20 54.95 54.33 53.70 53.33 53.02 54.97 57.86 60.99 59.31 50.91 54.59 56.85 58.45 57.42 55.00 52.64 52.74 53.99 52.30 49.94 47.77 48.28 45.45 48.69 53.58 53.63 52.86 52.20 51.82 49.42 52.58 54.87 58.45 58.62
55.24 55.76 56.10 55.67 54.37 55.57 55.19 55.26 55.26 55.39 55.14 54.95 54.89 54.64 53.68 52.86 53.20 55.84 57.79 60.90 60.47 60.13 46.00 50.42 51.92 56.74 57.80 54.97 50.86 56.34 55.06 52.34 50.05 47.14 48.40 47.04 51.15 51.30 49.91 49.49 48.33 42.64 51.01 53.52 55.52 52.29 48.13
55.96 54.47 55.47 54.24 54.63 55.26 54.99 54.99 55.07 55.02 54.85 54.64 54.54 54.29 53.15 51.91 49.38 53.91 59.36 61.03 59.70 56.85 38.62 53.38 52.90 58.36 55.19 51.59 51.84 52.27 55.56 52.17 48.34 48.33 46.08 46.07 48.62 48.70 47.92 48.82 49.77 46.46 50.53 49.80 53.19 50.71 48.03
55.22 54.18 54.10 54.06 55.12 54.74 54.81 54.94 54.78 54.75 54.48 54.48 54.23 53.43 52.87 54.50 52.13 55.72 59.63 60.75 57.96 45.00 40.82 50.59 53.26 51.43 49.27 51.27 52.83 52.97 52.27 53.40 53.41 49.51 48.48 47.70 51.52 49.36 48.61 51.30 50.76 51.45 48.61 48.67 49.13 49.80 44.06
54.30 54.25 54.41 55.24 54.58 54.66 54.94 54.72 54.69 54.56 54.23 53.82 53.01 52.30 51.30 54.33 56.64 60.85 61.61 56.81 44.68 40.97 53.28 49.48 49.18 51.17 50.06 49.14 50.38 50.04 48.80 46.97 45.20 40.33 42.21 47.09 48.01 50.12 51.20 46.68 49.84 47.64 44.28 37.94 39.58 40.54 42.05
54.95 55.59 55.23 54.36 54.86 55.04 55.22 55.28 55.07 54.44 54.05 53.35 51.60 50.96 52.27 54.87 58.89 61.27 57.75 50.36 42.27 50.80 48.59 52.99 51.23 50.33 47.34 49.08 49.64 49.75 47.27 45.24 48.23 46.52 43.04 41.67 40.93 48.19 51.09 47.04 45.56 44.86 43.11 38.40 36.56 38.88 43.23
54.50 54.11 53.99 54.51 54.98 55.32 55.33 55.33 54.70 54.39 53.68 52.60 50.76 55.88 56.85 59.31 57.88 59.45 53.50 44.44 45.66 50.73 52.26 51.32 51.77 47.04 47.53 49.88 49.01 48.84 47.35 46.44 48.67 48.03 42.39 40.84 43.36 51.24 51.46 51.43 48.76 45.29 41.57 45.32 39.89 43.18 40.03
54.16 54.62 55.21 55.29 55.09 55.30 55.12 54.97 54.52 54.17 53.51 51.96 50.74 56.98 60.74 64.04 62.07 58.26 50.45 45.30 50.14 54.80 53.40 51.72 46.68 49.06 45.93 48.42 47.54 47.73 47.14 50.11 49.27 50.72 49.71 45.64 41.68 48.62 51.44 50.76 49.49 46.27 48.09 39.84 39.76 35.85 34.84
54.73 54.34 55.11 55.11 55.36 55.03 55.19 54.99 54.60 53.86 52.70 51.50 54.52 57.40 60.46 62.62 61.37 54.00 46.91 49.08 52.79 56.43 54.21 49.73 47.83 46.80 48.14 48.66 50.48 49.32 48.50 51.04 52.06 50.99 50.37 47.72 44.20 46.02 48.28 45.03 44.53 43.95 42.39 43.71 41.10 39.84 36.14
54.46 54.19 54.02 54.75 54.84 55.18 55.40 55.15 54.35 53.22 51.68 52.77 58.98 54.92 61.56 61.80 51.88 52.50 49.34 52.27 53.00 54.92 55.67 52.89 51.41 48.78 47.88 49.35 48.89 49.91 50.32 51.59 54.16 49.67 46.52 48.20 44.08 40.82 45.21 50.05 50.72 48.35 45.32 43.58 38.55 38.20 40.35
54.38 54.19 54.19 54.06 54.65 55.32 55.34 54.88 53.89 53.06 52.10 50.25 55.86 59.42 62.40 60.38 48.40 50.27 54.44 55.81 57.17 54.41 53.18 52.93 52.06 52.54 50.89 47.79 45.47 50.62 51.52 55.41 56.21 51.36 46.81 52.17 44.32 39.67 41.74 45.05 47.96 44.18 45.77 44.56 43.23 41.12 39.63
55.39 55.50 55.16 54.66 55.35 55.49 55.24 54.72 53.64 53.38 52.75 50.92 55.66 54.87 58.49 58.52 56.88 52.26 50.94 52.20 53.01 57.47 55.60 55.67 53.97 53.59 52.79 49.93 50.11 49.52 51.05 54.68 59.07 58.22 64.07 55.83 45.82 43.33 40.11 42.78 46.40 45.58 47.19 46.67 43.22 39.00 39.60
55.11 55.01 55.32 55.43 55.34 55.47 55.20 54.60 53.96 53.23 52.53 51.27 57.60 56.06 53.61 52.89 54.32 54.53 54.58 54.37 52.76 52.45 55.86 55.74 54.20 53.88 51.38 47.90 49.77 49.77 52.38 53.06 57.88 60.59 57.26 52.96 45.99 47.08 47.96 48.82 48.37 47.54 47.66 47.45 45.25 44.86 41.67
55.31 55.41 55.33 54.76 55.35 55.39 55.32 55.01 54.27 53.31 51.88 54.01 54.06 51.88 53.33 51.84 52.32 51.73 50.90 51.22 51.33 52.23 53.11 52.48 52.69 54.66 55.24 50.00 50.44 48.75 51.63 53.73 52.30 56.62 53.02 53.11 46.87 48.39 47.59 51.58 49.29 48.03 48.44 48.70 48.13 47.69 46.98
55.16 55.14 55.27 55.15 54.79 55.39 55.49 55.03 54.54 53.48 52.61 55.15 57.31 55.95 52.57 50.40 51.11 50.26 50.87 52.13 52.51 53.57 54.18 54.32 54.51 53.44 53.87 55.55 58.43 57.20 55.86 54.88 57.48 53.46 52.13 50.40 47.69 45.46 42.07 49.36 49.58 46.73 46.59 47.95 47.55 48.80 47.29
54.90 55.00 54.89 54.93 55.09 55.45 55.47 55.51 54.91 54.41 52.90 52.61 56.41 55.45 50.41 47.78 50.57 50.86 52.59 53.40 52.79 53.21 51.61 53.63 53.47 50.80 53.68 56.00 58.07 57.32 56.07 54.52 57.34 54.47 55.37 51.28 47.62 46.73 43.20 46.61 39.42 50.06 54.35 54.46 52.42 51.83 51.71
54.49 54.70 54.42 54.62 54.95 55.38 55.62 55.68 55.41 54.79 54.09 52.03 55.37 54.71 51.24 45.97 49.54 49.77 50.79 51.12 52.38 52.84 52.65 53.81 54.71 54.83 54.86 52.07 50.08 49.69 49.27 49.20 51.37 55.25 53.03 51.34 47.93 43.97 41.31 41.67 47.13 51.39 54.50 53.11 49.68 50.62 54.66
54.22 54.18 54.32 54.19 54.48 54.82 55.30 55.55 55.63 55.24 54.09 53.09 54.59 58.86 53.62 47.60 47.64 50.74 49.29 51.73 48.84 49.65 51.70 54.38 56.92 56.63 53.72 48.37 46.49 44.02 42.92 46.65 47.70 51.33 53.57 51.66 52.25 47.38 44.78 40.71 40.49 49.23 55.20 56.97 54.63 45.56 55.08
53.65 54.03 53.99 53.90 53.96 54.41 54.91 54.97 55.09 55.29 54.54 52.56 53.48 57.01 55.04 48.90 51.09 52.04 48.62 48.50 51.36 49.79 47.74 51.06 54.40 52.79 55.27 47.57 44.08 43.33 44.46 53.08 46.38 46.75 47.21 46.84 48.47 45.08 45.48 42.95 47.33 53.82 54.68 58.22 45.01 46.40 56.18
53.95 53.97 53.95 54.03 53.85 53.98 54.31 54.40 54.57 54.65 55.22 53.06 52.72 56.34 55.87 51.20 51.63 53.84 54.35 50.91 50.81 50.69 47.09 50.88 50.18 51.68 51.21 47.19 47.98 46.76 47.56 49.47 49.64 50.61 48.83 46.97 45.55 45.83 47.00 44.98 42.50 55.91 54.26 48.67 52.13 55.33 57.04
54.01 53.92 54.07 54.01 54.01 53.71 54.10 53.76 53.97 53.73 54.39 54.59 51.11 56.15 56.41 52.41 51.63 55.61 55.09 55.52 54.37 53.84 50.67 50.31 49.48 49.28 52.27 48.76 49.15 50.61 49.99 51.38 48.79 45.10 52.36 45.03 49.57 47.90 47.70 47.20 53.50 55.34 54.51 56.45 57.85 57.86 59.48
MSLP
1019.63 1019.43 1019.20 1018.94 1018.68 1018.44 1018.17 1017.92 1017.63 1017.26 1016.84 1016.43 1015.96 1015.53 1015.18 1014.85 1014.39 1013.91 1013.37 1012.85 1012.59 1012.24 1011.72 1011.41 1011.07 1010.71 1009.59 1008.63 1005.18 1003.22 1003.34 1003.49 1003.79 1003.93 1003.87 1003.64 1003.01 1002.60 1001.87 1000.88 1000.81 1002.03 1001.65 1000.29 999.85 1000.06 1000.50
1019.69 1019.42 1019.16 1018.93 1018.69 1018.43 1018.19 1017.92 1017.65 1017.29 1016.97 1016.63 1016.17 1015.57 1015.05 1014.51 1014.08 1013.71 1013.25 1012.77 1012.35 1011.84 1011.43 1011.18 1010.80 1010.62 1009.93 1007.13 1002.56 1002.44 1002.95 1003.28 1003.27 1003.38 1003.29 1003.26 1002.57 1001.94 1001.40 1000.59 1000.22 1000.03 1000.06 999.86 999.53 999.79 999.92
1019.75 1019.44 1019.29 1019.01 1018.67 1018.46 1018.17 1017.84 1017.51 1017.15 1016.74 1016.31 1015.92 1015.52 1015.14 1014.63 1014.05 1013.42 1012.88 1012.41 1012.01 1011.65 1011.19 1010.87 1010.73 1010.32 1008.71 1005.11 1002.14 1002.39 1002.24 1002.45 1002.32 1002.50 1002.69 1002.48 1001.96 1001.95 1001.16 1000.70 999.60 999.66 999.89 999.73 999.61 999.36 999.82
1019.70 1019.48 1019.24 1018.97 1018.71 1018.47 1018.16 1017.83 1017.45 1017.04 1016.67 1016.32 1015.87 1015.43 1014.99 1014.45 1013.89 1013.28 1012.55 1011.81 1011.26 1010.87 1010.70 1010.46 1010.44 1009.89 1007.29 1002.91 1002.27 1002.34 1002.09 1001.96 1001.74 1001.66 1001.80 1001.60 1001.50 1001.71 1001.11 1000.80 1000.24 999.99 999.77 999.76 999.26 999.37 999.63
1019.77 1019.51 1019.25 1018.99 1018.71 1018.38 1018.01 1017.64 1017.35 1017.05 1016.70 1016.30 1015.89 1015.43 1014.89 1014.33 1013.79 1013.28 1012.66 1011.75 1010.94 1010.36 1010.12 1010.19 1010.17 1009.31 1005.61 1002.14 1002.12 1001.85 1001.62 1001.90 1001.69 1001.44 1001.40 1001.24 1001.36 1001.78 1001.66 1001.59 1001.23 1000.27 1000.15 999.98 999.63 999.29 999.62
1019.80 1019.52 1019.24 1018.95 1018.56 1018.19 1017.88 1017.57 1017.28 1016.98 1016.62 1016.21 1015.77 1015.27 1014.74 1014.22 1013.63 1013.00 1012.12 1010.67 1010.01 1010.14 1009.76 1009.48 1008.83 1008.21 1004.40 1001.98 1001.26 1001.24 1001.32 1001.64 1001.79 1001.61 1001.63 1001.69 1001.95 1002.32 1002.24 1002.11 1001.77 1000.88 1000.15 999.95 999.74 999.35 999.63
1019.78 1019.49 1019.18 1018.85 1018.48 1018.14 1017.81 1017.53 1017.26 1016.86 1016.41 1015.97 1015.56 1015.11 1014.52 1013.93 1013.44 1013.04 1012.07 1010.07 1009.94 1009.61 1008.67 1006.97 1005.78 1004.45 1002.51 1001.34 1000.80 1000.86 1001.03 1001.53 1001.77 1001.80 1002.10 1002.01 1002.58 1002.55 1002.22 1001.51 1000.88 1000.44 1000.03 999.63 999.19 998.74 999.14
1019.79 1019.46 1019.15 1018.85 1018.49 1018.19 1017.81 1017.41 1017.07 1016.66 1016.25 1015.82 1015.32 1014.75 1014.17 1013.53 1012.95 1012.72 1012.77 1010.69 1007.66 1006.99 1006.28 1005.10 1004.41 1003.59 1002.37 1001.43 1000.91 1000.81 1000.77 1001.60 1001.96 1002.39 1002.30 1002.47 1002.34 1002.08 1001.60 1001.01 1000.60 1000.06 999.69 999.23 998.63 998.22 998.44
1019.77 1019.41 1019.06 1018.77 1018.46 1018.13 1017.77 1017.37 1016.97 1016.50 1016.08 1015.63 1015.11 1014.52 1013.84 1012.95 1012.02 1011.66 1010.58 1008.31 1006.73 1006.27 1005.77 1003.03 1002.20 1002.03 1001.68 1001.11 1001.07 1000.82 1000.96 1001.37 1001.86 1002.52 1002.42 1002.37 1001.72 1001.18 1001.02 1000.54 1000.15 999.72 999.46 998.85 998.53 997.98 998.28
1019.77 1019.42 1019.12 1018.78 1018.40 1018.08 1017.70 1017.31 1016.83 1016.40 1015.94 1015.47 1014.92 1014.30 1013.67 1012.53 1011.60 1010.63 1008.51 1007.07 1006.44 1006.05 1005.38 1001.83 1000.55 1000.47 1000.87 1000.78 1000.59 1000.03 1000.35 1001.15 1001.61 1001.90 1002.28 1001.93 1001.10 1000.67 1000.41 1000.23 999.79 999.61 998.93 998.70 998.63 998.66 999.10
1019.79 1019.46 1019.13 1018.73 1018.32 1017.99 1017.61 1017.13 1016.69 1016.21 1015.74 1015.20 1014.63 1014.11 1013.66 1013.81 1012.91 1010.66 1007.87 1006.64 1006.39 1006.22 1004.38 999.92 999.59 998.75 999.53 1000.39 999.61 999.47 999.71 1000.32 1001.02 1001.57 1002.02 1001.42 1000.87 1000.33 1000.01 999.55 999.18 999.23 998.81 999.06 999.15 999.32 999.60
1019.86 1019.55 1019.14 1018.66 1018.20 1017.83 1017.42 1017.00 1016.49 1016.00 1015.46 1014.90 1014.36 1013.94 1013.55 1012.27 1012.60 1009.38 1007.70 1006.98 1006.43 1006.14 1002.44 999.63 999.38 999.34 999.69 1000.09 1000.01 999.75 999.79 1000.04 1000.49 1001.35 1001.41 1001.02 1000.19 999.90 999.37 998.92 998.75 998.90 999.30 999.61 999.69 1000.16 1000.61
1019.84 1019.50 1019.06 1018.59 1018.10 1017.68 1017.28 1016.74 1016.15 1015.57 1015.02 1014.43 1013.88 1013.66 1013.81 1012.76 1010.21 1008.15 1007.51 1007.11 1006.72 1004.48 1000.23 999.31 999.44 999.28 999.98 1000.18 1000.35 1000.01 1000.14 1000.34 1000.79 1001.51 1001.62 1001.09 1000.23 999.49 999.05 999.14 998.71 999.18 1000.08 1001.02 1001.64 1001.42 1001.22
1019.77 1019.47 1018.99 1018.48 1018.02 1017.54 1017.03 1016.46 1015.90 1015.32 1014.60 1013.83 1013.09 1012.92 1011.89 1010.92 1009.36 1008.62 1008.25 1007.52 1005.93 1002.48 1000.64 999.08 998.49 998.84 999.63 999.77 999.93 999.92 1000.11 1000.46 1000.68 1001.17 1001.47 1001.28 1000.40 999.34 998.52 998.72 999.01 999.40 1000.33 1001.60 1002.12 1002.07 1001.42
1019.79 1019.37 1018.83 1018.30 1017.92 1017.47 1016.95 1016.37 1015.75 1015.00 1014.24 1013.41 1012.06 1010.94 1010.37 1008.60 1009.06 1009.03 1008.58 1007.24 1004.14 1002.10 1000.90 1000.00 998.89 998.95 999.19 999.02 999.25 999.56 999.63 999.88 999.95 1000.29 1001.12 1000.58 999.68 998.37 997.86 997.66 998.34 999.02 999.97 1000.65 1001.74 1001.80 1001.84
1019.77 1019.33 1018.77 1018.28 1017.92 1017.46 1016.90 1016.29 1015.62 1014.82 1013.99 1013.39 1012.47 1010.37 1007.97 1006.86 1007.77 1008.09 1008.01 1006.19 1004.04 1002.04 1000.93 1000.73 1000.43 999.90 999.88 999.62 999.07 998.84 998.94 998.56 998.71 998.88 999.32 999.84 1000.03 998.43 997.62 997.17 997.74 998.53 999.48 1000.63 1001.31 1002.54 1002.38
1019.80 1019.35 1018.79 1018.31 1017.91 1017.44 1016.93 1016.37 1015.58 1014.58 1013.19 1012.26 1011.83 1009.31 1006.12 1006.16 1006.88 1007.50 1007.02 1005.15 1003.19 1001.60 1000.87 1001.22 1001.18 1000.89 1000.67 1000.32 999.64 998.86 997.99 997.69 997.65 997.77 998.11 999.06 999.52 998.79 998.16 997.69 997.89 998.61 999.40 1000.28 1001.38 1002.10 1002.41
1019.77 1019.28 1018.79 1018.36 1017.92 1017.47 1016.92 1016.29 1015.61 1014.65 1013.02 1012.18 1010.86 1008.23 1005.81 1006.09 1006.87 1006.36 1005.63 1004.26 1002.53 1001.38 1001.22 1001.31 1001.33 1001.48 1001.14 1000.73 1000.17 999.37 998.35 997.47 996.96 997.07 997.69 997.98 998.74 999.24 998.44 997.47 997.52 997.91 998.42 999.55 1001.19 1001.63 1001.45
1019.72 1019.21 1018.72 1018.33 1017.89 1017.44 1016.92 1016.31 1015.69 1015.14 1014.76 1014.29 1011.44 1007.77 1005.67 1005.81 1006.12 1005.56 1004.58 1003.27 1002.19 1001.36 1001.26 1001.34 1001.23 1001.21 1001.17 1000.96 1000.93 999.75 998.79 997.82 997.52 997.64 998.00 998.69 999.18 999.82 999.14 998.65 997.73 997.80 997.97 998.46 999.39 1000.00 1000.58
1019.84 1019.24 1018.72 1018.30 1017.90 1017.39 1016.86 1016.34 1015.82 1015.35 1015.12 1014.85 1011.92 1007.96 1006.25 1005.97 1005.68 1005.44 1004.78 1003.51 1002.25 1001.23 1000.94 1001.25 1001.47 1001.40 1001.40 1001.24 1000.71 1000.35 999.63 998.80 999.06 999.39 999.09 998.76 1000.01 1000.96 1000.88 999.79 999.02 998.32 997.73 997.77 998.48 999.42 999.80
1019.94 1019.48 1019.05 1018.58 1018.11 1017.60 1017.00 1016.37 1015.71 1015.03 1014.46 1014.46 1011.27 1008.39 1007.53 1006.20 1005.68 1005.22 1004.34 1003.53 1002.48 1001.78 1001.39 1001.19 1001.28 1001.38 1001.58 1001.74 1001.35 1000.86 1000.21 999.69 999.93 1000.33 1000.36 1000.70 1001.41 1001.74 1000.99 1000.08 999.29 998.37 997.74 997.35 997.62 997.81 998.47
1020.22 1019.77 1019.32 1018.77 1018.28 1017.74 1017.15 1016.49 1015.67 1014.62 1013.65 1013.29 1011.27 1010.04 1008.70 1007.69 1006.29 1005.27 1004.25 1003.53 1002.73 1002.04 1001.74 1001.46 1001.26 1001.17 1001.05 1001.25 1001.30 1001.07 1000.80 1000.77 1001.36 1001.32 1001.82 1002.46 1003.08 1003.33 1002.45 1000.88 999.92 998.93 997.55 996.95 996.75 996.89 996.69
1020.38 1019.91 1019.44 1018.93 1018.34 1017.80 1017.21 1016.62 1015.97 1015.07 1013.14 1012.99 1011.74 1010.92 1010.00 1008.28 1007.07 1005.95 1004.47 1003.62 1002.44 1002.05 1001.88 1001.62 1001.44 1001.43 1001.21 1000.90 1000.85 1000.91 1000.97 1001.02 1001.31 1002.10 1003.14 1003.99 1004.57 1005.44 1004.22 1002.33 1001.41 999.64 997.71 996.99 996.56 996.11 996.51
1020.44 1019.98 1019.51 1019.04 1018.51 1017.97 1017.45 1016.94 1016.48 1016.09 1015.95 1015.27 1013.26 1012.18 1010.89 1009.10 1007.89 1006.58 1005.44 1004.30 1003.40 1003.02 1002.62 1002.25 1001.98 1001.92 1001.64 1001.24 1001.08 1000.92 1001.11 1001.43 1002.04 1002.75 1003.27 1004.38 1005.44 1005.81 1005.20 1003.77 1002.09 999.63 998.33 997.54 996.96 996.45 996.09
1020.47 1020.09 1019.64 1019.15 1018.66 1018.13 1017.64 1017.21 1016.80 1016.46 1016.18 1015.63 1014.03 1013.05 1011.83 1010.33 1008.64 1007.30 1006.20 1005.37 1004.55 1003.83 1003.23 1002.54 1001.81 1001.56 1001.25 1001.52 1001.95 1001.86 1002.07 1002.10 1002.02 1002.28 1003.09 1003.91 1005.37 1006.04 1005.75 1004.65 1002.27 1000.41 999.25 998.62 998.68 997.27 996.81
1020.43 1020.05 1019.67 1019.23 1018.75 1018.30 1017.84 1017.40 1016.99 1016.62 1016.23 1015.35 1014.09 1012.94 1012.58 1011.36 1008.41 1008.02 1007.19 1006.17 1005.52 1004.77 1003.78 1002.77 1001.90 1001.11 1000.81 1001.71 1002.53 1003.02 1003.20 1002.93 1002.80 1002.33 1003.21 1004.54 1005.28 1006.07 1005.91 1005.31 1003.25 1001.37 999.74 999.24 999.51 998.94 997.45
1020.40 1020.04 1019.70 1019.32 1018.90 1018.47 1018.02 1017.59 1017.18 1016.81 1016.47 1016.24 1014.52 1013.40 1012.82 1011.98 1008.96 1008.41 1008.13 1007.39 1006.69 1006.02 1005.24 1004.14 1003.11 1002.25 1001.49 1002.06 1002.90 1003.40 1003.42 1003.33 1003.81 1004.63 1005.21 1005.80 1006.06 1006.35 1005.90 1005.29 1003.63 1002.56 1001.76 999.78 1000.81 1001.67 1000.25
1020.35 1020.01 1019.67 1019.29 1018.89 1018.48 1018.09 1017.69 1017.31 1016.98 1016.67 1016.34 1014.46 1013.24 1013.03 1012.12 1009.85 1008.54 1007.68 1007.79 1007.12 1006.47 1005.86 1004.80 1004.22 1003.06 1002.50 1002.59 1002.97 1003.25 1003.38 1004.45 1004.75 1005.09 1005.56 1005.52 1005.94 1006.22 1005.83 1005.02 1003.84 1003.24 1002.22 1003.46 1003.46 1001.45 1001.23
1020.20 1019.84 1019.47 1019.06 1018.70 1018.37 1018.03 1017.64 1017.24 1016.97 1016.74 1016.55 1015.13 1013.55 1013.35 1012.66 1009.87 1008.44 1007.46 1006.92 1006.86 1006.10 1006.17 1005.48 1004.90 1004.23 1003.26 1003.51 1003.62 1003.48 1003.94 1004.61 1005.11 1005.42 1005.29 1005.96 1005.63 1005.53 1005.86 1004.36 1002.58 1002.91 1003.28 1003.37 1002.39 1002.54 1001.60
Wind_Speed
11 11 12 12 12 13 11 14 14 14 15 16 17 18 18 18 19 19 19 19 20 20 20 19 17 16 8 3 11 7 9 8 6 5 6 10 12 14 11 13 7 16 8 12 5 5 7
11 10 12 12 12 12 12 12 14 14 14 14 15 17 18 18 19 20 19 19 21 21 20 18 16 16 4 5 3 12 10 8 8 8 7 10 9 14 15 17 2 1 4 6 6 5 5
10 11 11 10 12 11 12 12 14 14 14 15 16 16 16 17 20 21 22 21 22 20 19 16 11 6 5 16 8 2 11 8 8 10 10 10 15 10 12 12 10 8 5 8 5 2 2
12 11 11 12 11 11 12 12 13 14 13 14 15 16 17 19 20 21 22 24 25 22 16 12 6 4 9 9 10 13 12 8 10 10 10 10 10 8 5 10 16 12 5 4 7 4 6
12 11 10 11 11 11 12 12 12 13 13 14 14 15 17 18 19 19 21 25 24 19 13 8 3 4 10 3 6 11 6 8 9 8 7 11 5 4 10 8 9 7 5 6 1 6 6
12 12 12 12 12 12 12 13 13 14 13 14 14 15 16 17 18 19 24 26 12 9 7 8 8 5 7 8 7 10 9 8 8 8 8 7 2 5 6 6 7 7 3 4 4 6 10
12 12 13 13 13 13 12 13 13 14 15 15 15 16 17 17 17 17 14 6 0 0 5 10 8 7 11 8 11 7 10 9 9 7 6 8 4 6 13 14 17 15 9 7 7 12 13
12 12 13 13 13 13 14 13 14 14 15 15 16 17 18 19 20 17 5 4 6 4 9 15 20 20 18 9 2 6 3 7 7 8 8 6 8 12 14 17 17 16 14 11 6 8 7
12 13 13 10 12 13 13 14 14 15 15 15 17 18 19 22 25 6 7 9 7 8 5 10 18 16 12 8 8 11 10 8 9 9 11 9 11 14 17 16 15 14 8 11 5 5 3
13 12 13 12 14 13 14 14 15 15 15 16 17 17 19 26 5 7 4 9 5 7 4 9 10 9 15 6 9 16 10 11 8 11 11 10 12 15 12 13 9 8 15 17 8 6 3
12 14 13 14 14 13 13 14 14 15 15 16 17 17 17 9 8 5 8 10 5 2 4 9 7 5 8 10 5 7 11 9 10 11 6 13 11 13 12 12 6 10 10 11 11 6 4
13 14 14 15 13 14 14 14 15 15 15 17 17 16 17 2 4 11 11 13 4 1 7 7 7 7 5 7 12 6 9 7 10 10 11 12 12 8 10 15 9 5 9 11 7 1 3
14 14 14 14 15 15 15 15 16 17 18 18 17 13 7 7 5 11 10 3 2 4 4 7 7 10 9 9 10 7 10 7 6 5 9 11 13 11 9 9 8 5 2 6 6 5 9
15 14 14 15 15 16 17 17 18 19 20 20 20 17 7 8 8 10 3 2 5 8 8 12 5 12 11 12 13 13 6 8 9 10 6 8 9 14 14 9 8 6 8 7 8 5 9
14 15 16 15 15 16 17 18 19 20 21 21 28 4 4 6 12 6 2 4 5 8 12 12 11 1 6 9 8 12 12 9 11 12 10 4 9 10 13 17 10 10 6 10 5 10 5
15 16 16 15 15 16 17 18 20 21 22 18 4 4 7 9 12 5 2 5 6 10 8 10 8 7 9 12 8 9 11 15 13 12 13 10 10 15 16 10 9 11 8 4 5 4 7
15 15 15 16 16 17 17 18 20 23 26 10 3 3 4 9 7 2 4 7 12 13 6 4 9 11 14 14 17 11 9 7 9 15 12 12 8 16 7 4 11 3 4 5 2 4 6
16 17 17 16 16 17 18 19 19 22 30 1 4 3 6 7 3 4 6 7 7 6 7 7 4 8 11 15 13 13 10 5 8 2 6 8 6 6 13 11 8 8 12 10 6 11 5
17 17 18 18 17 17 18 18 18 17 16 6 4 5 6 6 4 6 10 16 14 3 5 8 6 7 8 9 7 9 14 16 16 4 3 5 4 5 9 9 10 6 7 9 5 4 10
16 17 17 18 17 18 18 18 17 15 10 4 4 3 2 4 6 11 11 12 12 12 6 3 8 10 11 8 10 7 12 15 10 9 12 6 2 4 6 8 8 11 9 8 8 4 6
17 18 19 17 17 18 19 19 19 18 17 2 4 3 4 3 5 8 10 9 12 12 10 8 4 7 8 8 10 10 10 15 7 8 7 7 4 8 11 11 15 15 15 10 11 12 10
16 16 17 19 17 18 18 19 21 24 24 3 3 5 6 10 11 12 10 10 11 13 9 11 7 11 10 6 9 9 12 3 2 6 5 5 3 8 8 12 14 21 16 16 14 8 12
15 16 17 18 20 18 18 19 20 23 21 5 5 4 3 7 8 10 10 17 11 10 8 13 12 13 12 11 9 8 7 8 6 2 2 3 4 3 7 8 16 11 11 11 10 12 6
15 16 17 18 19 18 18 18 18 17 15 3 3 5 3 6 7 11 18 18 16 12 9 11 13 11 11 18 16 7 8 6 5 4 4 8 5 4 7 6 5 9 10 9 12 15 15
14 15 17 17 18 18 18 17 17 16 14 4 4 4 4 6 9 14 15 16 15 13 13 13 12 12 10 6 7 6 6 7 9 11 12 5 6 1 1 4 10 16 14 6 5 17 18
14 14 15 17 17 17 18 17 16 15 15 6 5 3 3 5 5 13 14 12 9 7 9 11 14 7 7 2 2 5 6 10 4 9 9 6 6 4 0 1 6 8 12 4 6 9 10
14 14 14 15 16 16 17 17 17 16 14 6 5 6 3 5 9 8 6 9 7 8 7 10 8 9 11 4 4 5 9 2 5 7 4 1 2 5 6 5 7 8 18 13 1 10 26
13 13 14 14 15 15 16 16 16 15 14 8 8 9 2 4 14 9 5 8 9 6 8 6 7 4 6 2 3 5 5 2 2 2 5 2 1 4 3 8 15 13 9 4 13 24 20
13 13 13 14 14 15 15 16 15 14 11 8 5 9 8 5 10 17 23 24 22 23 9 4 7 11 4 5 5 5 1 3 4 3 1 3 6 6 8 7 5 4 8 4 11 10 11
Wind_Direction
6 358 9 358 356 354 353 351 348 346 343 341 339 337 335 334 331 328 326 324 323 320 319 318 321 324 335 233 250 150 172 176 177 182 217 243 272 284 287 306 181 173 217 233 226 176 245
356 357 357 355 351 353 352 349 347 343 342 339 337 335 333 329 327 325 322 320 319 318 315 313 319 316 239 260 162 157 187 167 222 195 215 242 260 285 291 302 296 242 191 292 276 280 259
356 357 359 350 351 357 352 347 345 343 342 340 337 333 327 325 325 324 321 316 314 311 307 308 309 295 269 243 291 257 184 214 207 217 228 234 249 268 289 314 312 251 280 234 180 269 10
354 0 355 351 356 353 345 340 342 341 339 334 331 330 327 326 324 322 318 315 312 306 303 301 289 274 252 254 270 260 285 267 249 240 233 251 268 285 274 297 299 283 257 257 229 248 264
353 352 351 350 350 341 337 338 344 338 333 331 326 325 323 322 319 317 313 307 299 290 286 267 255 219 263 256 214 226 266 234 263 263 270 258 300 311 320 295 308 304 247 278 119 221 252
352 351 349 350 345 343 343 341 337 334 332 329 326 324 321 319 319 319 316 295 275 306 225 220 252 292 260 240 219 219 217 251 257 260 239 240 236 257 280 269 250 268 269 59 234 208 239
351 350 349 347 343 340 338 331 341 332 329 328 326 323 320 319 317 322 338 350 265 170 258 214 202 238 283 222 281 181 196 216 245 280 234 248 202 233 251 254 259 272 255 155 223 243 236
350 349 348 348 354 348 343 338 332 331 328 327 327 325 324 320 314 315 292 266 357 312 292 236 246 258 264 282 258 254 316 194 205 242 262 261 232 233 255 267 274 284 287 275 222 236 195
350 349 345 345 342 339 335 330 331 327 328 329 328 327 327 320 315 283 223 254 328 303 270 265 225 228 241 201 240 264 187 238 215 224 249 216 236 232 235 251 268 278 275 285 303 261 197
353 355 354 351 344 337 335 334 327 328 329 329 326 327 327 328 322 338 243 231 298 309 295 263 193 210 229 233 258 230 219 183 222 228 230 250 251 253 256 241 230 274 280 285 262 307 208
352 351 348 346 342 343 336 327 328 328 327 324 322 321 321 334 304 286 339 330 336 326 315 137 142 185 171 184 263 197 228 196 222 224 239 248 250 266 274 267 243 232 274 286 293 257 14
354 351 349 346 347 341 332 330 327 326 321 317 316 316 331 87 196 249 293 286 307 284 249 143 133 179 202 185 258 265 192 209 194 248 258 248 258 245 254 272 273 264 312 314 307 205 320
353 350 350 353 344 339 335 327 329 326 321 315 309 302 305 311 232 332 319 300 285 240 340 157 166 169 197 198 234 253 192 221 188 210 256 274 268 269 255 287 270 247 276 318 332 330 234
357 354 351 349 344 341 337 336 331 326 322 316 308 303 242 224 245 291 283 305 249 268 298 311 153 166 178 206 207 223 214 199 215 239 264 216 280 241 248 225 220 235 187 168 238 242 257
355 351 353 351 347 341 337 335 332 328 324 321 311 166 230 234 215 257 281 241 250 357 16 343 339 210 273 213 214 190 215 204 211 200 223 286 261 266 214 228 174 243 276 239 262 276 307
357 354 354 353 349 340 340 338 334 330 325 328 308 282 228 168 176 215 233 269 299 278 15 0 333 320 332 314 222 214 195 211 222 209 192 234 266 281 285 220 220 160 216 305 322 247 281
359 356 354 349 344 344 343 341 339 335 330 338 233 251 105 145 161 233 239 259 290 311 74 4 326 322 322 318 329 316 210 246 248 227 211 207 207 273 308 266 198 206 232 267 181 174 209
1 359 358 354 348 345 344 343 343 344 337 103 294 275 154 162 189 216 230 244 260 335 343 297 222 281 294 309 319 323 329 292 318 337 234 210 202 233 244 273 264 214 192 192 148 278 232
1 1 0 357 352 348 347 346 346 347 7 326 282 278 163 190 259 253 279 301 297 261 293 295 284 266 259 283 308 315 310 311 313 352 60 1 349 344 313 329 325 255 233 208 209 214 249
358 357 360 356 351 349 348 346 342 340 343 300 278 304 155 191 251 280 292 286 300 308 211 197 295 315 316 301 296 289 304 304 49 9 337 93 197 220 246 229 241 293 275 220 201 220 246
359 358 354 353 352 350 348 347 343 339 335 233 237 305 9 316 295 267 277 307 330 322 308 305 234 253 240 290 307 301 286 289 74 359 7 31 344 315 279 282 291 286 281 264 219 225 224
354 354 352 357 353 352 351 350 348 344 339 236 319 355 353 298 300 304 282 269 259 258 258 282 297 284 260 218 243 259 297 34 165 352 35 356 324 10 316 313 309 304 292 291 282 246 231
350 351 353 353 356 355 354 355 357 358 344 342 7 340 282 292 301 299 298 329 312 350 331 323 324 332 326 306 358 327 328 315 157 97 78 51 71 84 273 318 340 317 273 284 285 279 241
350 352 353 354 356 356 355 358 2 7 17 302 305 315 288 290 313 301 321 312 326 329 303 309 316 317 294 318 327 328 331 321 147 187 173 154 166 152 263 352 253 252 311 301 304 302 306
347 349 351 353 354 354 355 356 0 359 2 315 299 309 319 297 318 300 333 326 333 325 316 298 271 245 259 286 315 328 315 296 271 202 201 130 124 164 210 254 290 309 290 339 15 301 307
342 344 346 349 351 351 352 354 352 355 356 320 286 308 320 306 260 353 310 295 281 316 309 316 318 304 217 187 254 265 266 263 282 352 118 97 61 118 279 208 282 300 308 4 328 283 328
338 339 341 342 344 344 346 348 350 347 351 334 287 298 288 286 270 320 308 307 309 317 292 311 329 332 315 167 212 242 256 202 167 174 347 197 201 205 246 254 255 12 332 324 94 308 332
334 336 336 335 337 338 339 339 340 341 344 347 280 266 281 268 288 261 313 315 312 286 269 292 334 286 305 276 229 234 251 71 78 70 205 198 152 212 205 217 249 25 6 40 311 306 305
330 333 332 331 331 334 334 334 332 333 335 343 279 356 349 261 262 304 283 270 250 249 272 265 284 308 272 21 353 349 25 160 153 231 101 243 212 180 182 231 290 265 218 257 282 272 287